EW7119 Weather Reports


Display with metric or nautical units.
time (UTC)temp
F
wind
direction
speed
MPH
gust
MPH
rain 1hr
in
rain 24hr
in
rain mn
in
humidity
%
barometer
mb
20260903191519 71 202 0.0 2.0 0.00 0.00 0.00 24 1002.6
20260903190036 70 274 1.0 15.0 0.00 0.00 0.00 22 1002.7
20260903184510 71 305 0.0 11.0 0.00 0.00 0.00 19 1002.8
20260903183111 71 261 0.0 3.0 0.00 0.00 0.00 24 1003.0
20260903181606 71 212 0.0 2.0 0.00 0.00 0.00 25 1003.3
20260903180055 69 247 0.0 6.0 0.00 0.00 0.00 27 1003.6
20260903174554 68 275 0.0 8.0 0.00 0.00 0.00 29 1003.6
20260903173042 68 265 0.0 11.0 0.00 0.00 0.00 30 1003.6
20260903171521 68 243 0.0 11.0 0.00 0.00 0.00 31 1003.6
20260903170016 67 273 0.0 0.0 0.00 0.00 0.00 34 1003.6
20260903164503 65 248 0.0 8.0 0.00 0.00 0.00 37 1003.6
20260903163103 64 252 0.0 12.0 0.00 0.00 0.00 39 1003.5
20260903161603 64 230 0.0 3.0 0.00 0.00 0.00 38 1003.1
20260903160131 64 282 0.0 0.0 0.00 0.00 0.00 39 1003.1
20260903154512 63 171 0.0 4.0 0.00 0.00 0.00 43 1003.1
20260903153014 63 143 0.0 1.0 0.00 0.00 0.00 43 1003.4
20260903151521 62 113 0.0 0.0 0.00 0.00 0.00 44 1003.4
20260903150041 61 170 0.0 0.0 0.00 0.00 0.00 46 1003.6
20260903144554 60 155 0.0 0.0 0.00 0.00 0.00 46 1003.7
20260903143110 59 163 0.0 3.0 0.00 0.00 0.00 47 1003.8
20260903141614 58 149 0.0 0.0 0.00 0.00 0.00 50 1003.7
20260903140109 56 144 0.0 2.0 0.00 0.00 0.00 53 1003.6
20260903134559 54 142 0.0 0.0 0.00 0.00 0.00 55 1003.7
20260903133034 52 172 0.0 0.0 0.00 0.00 0.00 58 1003.4
20260903131553 51 172 0.0 0.0 0.00 0.00 0.00 58 1003.3
20260903130058 51 172 0.0 1.0 0.00 0.00 0.00 59 1003.1
20260903124546 51 257 0.0 0.0 0.00 0.00 0.00 58 1003.0
20260903123051 52 260 0.0 0.0 0.00 0.00 0.00 55 1003.1
20260903121551 52 260 0.0 0.0 0.00 0.00 0.00 55 1003.0
20260903120009 52 146 0.0 0.0 0.00 0.00 0.00 55 1003.0
20260903114513 52 146 0.0 0.0 0.00 0.00 0.00 56 1003.0
20260903113040 51 214 0.0 0.0 0.00 0.00 0.00 55 1003.0
20260903111554 52 214 0.0 0.0 0.00 0.00 0.00 53 1003.0
20260903110009 53 254 0.0 0.0 0.00 0.00 0.00 50 1003.0
20260903104521 54 254 0.0 0.0 0.00 0.00 0.00 49 1002.9
20260903103057 54 207 0.0 7.0 0.00 0.00 0.00 50 1003.0
20260903101612 51 161 0.0 0.0 0.00 0.00 0.00 53 1002.7
20260903100036 50 155 0.0 0.0 0.00 0.00 0.00 57 1002.9
20260903094544 50 156 0.0 0.0 0.00 0.00 0.00 60 1002.8
20260903093040 51 155 0.0 0.0 0.00 0.00 0.00 59 1002.9
20260903091542 51 156 0.0 0.0 0.00 0.00 0.00 58 1002.8
20260903090056 52 155 0.0 0.0 0.00 0.00 0.00 58 1003.0
20260903084600 52 155 0.0 0.0 0.00 0.00 0.00 56 1003.1
20260903083111 53 155 0.0 0.0 0.00 0.00 0.00 55 1003.0
20260903081611 54 155 0.0 0.0 0.00 0.00 0.00 54 1003.2
20260903080007 54 111 0.0 0.0 0.00 0.00 0.00 53 1003.3
20260903074529 55 273 0.0 0.0 0.00 0.00 0.00 52 1003.5
20260903073018 56 273 0.0 0.0 0.00 0.00 0.00 49 1003.6
20260903071533 57 273 0.0 0.0 0.00 0.00 0.00 48 1003.6
20260903070002 57 172 0.0 0.0 0.00 0.00 0.00 47 1003.6
20260903064514 57 177 0.0 0.0 0.00 0.00 0.00 46 1003.7
20260903063103 57 254 0.0 0.0 0.00 0.00 0.00 47 1003.8
20260903061522 58 227 0.0 0.0 0.00 0.00 0.00 47 1003.8
20260903060042 58 211 0.0 0.0 0.00 0.00 0.00 47 1003.6
20260903054545 58 133 0.0 0.0 0.00 0.00 0.00 48 1003.6
20260903053049 57 133 0.0 0.0 0.00 0.00 0.00 48 1003.6
20260903051559 57 133 0.0 0.0 0.00 0.00 0.00 50 1003.6
20260903050115 57 133 0.0 0.0 0.00 0.00 0.00 49 1003.5
20260903044557 58 206 0.0 0.0 0.00 0.00 0.00 47 1003.6
20260903043101 58 206 0.0 0.0 0.00 0.00 0.00 45 1003.8
20260903041556 59 206 0.0 0.0 0.00 0.00 0.00 43 1003.6
20260903040104 60 206 0.0 0.0 0.00 0.00 0.00 40 1003.5
20260903034613 61 171 0.0 0.0 0.00 0.00 0.00 37 1003.7
20260903033009 62 154 0.0 0.0 0.00 0.00 0.00 36 1003.2
20260903031522 62 135 0.0 8.0 0.00 0.00 0.00 38 1003.1
20260903030034 62 157 0.0 1.0 0.00 0.00 0.00 37 1002.8
20260903024529 63 182 0.0 0.0 0.00 0.00 0.00 36 1002.8
20260903023021 64 146 0.0 0.0 0.00 0.00 0.00 35 1002.5
20260903021543 64 146 0.0 0.0 0.00 0.00 0.00 35 1002.4
20260903020053 64 150 0.0 0.0 0.00 0.00 0.00 35 1002.2
20260903014555 64 126 0.0 0.0 0.00 0.00 0.00 35 1002.2
20260903013107 65 127 0.0 1.0 0.00 0.00 0.00 33 1002.2
20260903011630 67 249 0.0 0.0 0.00 0.00 0.00 31 1002.0
20260903010009 68 249 0.0 0.0 0.00 0.00 0.00 29 1002.1
20260903004518 69 179 0.0 0.0 0.00 0.00 0.00 28 1002.1
20260903003008 70 252 0.0 2.0 0.00 0.00 0.00 27 1002.0
20260903001512 72 269 0.0 0.0 0.00 0.00 0.00 28 1001.8
20260903000018 70 275 0.0 1.0 0.00 0.00 0.00 30 1001.8
20260902234550 70 147 0.0 0.0 0.00 0.00 0.00 32 1002.0
20260902233101 69 184 0.0 0.0 0.00 0.00 0.00 31 1002.1
20260902231615 69 259 0.0 0.0 0.00 0.00 0.00 31 1002.3
20260902230135 69 292 0.0 0.0 0.00 0.00 0.00 32 1002.4
20260902224502 71 213 0.0 2.0 0.00 0.00 0.00 29 1002.4
20260902223003 70 285 0.0 0.0 0.00 0.00 0.00 34 1002.4
20260902221502 72 306 0.0 1.0 0.00 0.00 0.00 27 1002.5
20260902220134 74 258 0.0 11.0 0.00 0.00 0.00 27 1002.5
20260902214502 73 234 0.0 1.0 0.00 0.00 0.00 26 1002.6
20260902213133 73 142 3.0 12.0 0.00 0.00 0.00 25 1002.7
20260902211501 71 248 0.0 0.0 0.00 0.00 0.00 25 1002.9
20260902210032 71 140 0.0 0.0 0.00 0.00 0.00 29 1003.3
20260902204522 70 271 0.0 0.0 0.00 0.00 0.00 29 1003.7
20260902203044 71 263 0.0 0.0 0.00 0.00 0.00 28 1003.8
20260902201550 70 206 0.0 0.0 0.00 0.00 0.00 28 1004.1
20260902200054 72 274 0.0 5.0 0.00 0.00 0.00 29 1004.2
20260902194604 72 150 0.0 0.0 0.00 0.00 0.00 33 1004.2
20260902193130 72 126 0.0 1.0 0.00 0.00 0.00 31 1004.5